| time (UTC) | temp C | wind direction | speed KPH | gust KPH | rain 1hr cm | rain 24hr cm | rain mn cm | humidity % | barometer mb |
| 20260505010506 | 20 | 116 | 0.0 | 6.4 | 0.00 | 0.00 | 0.00 | 62 | 1002.2 |
| 20260505010003 | 20 | 136 | 4.8 | 8.0 | 0.00 | 0.00 | 0.00 | 62 | 1002.0 |
| 20260505005459 | 20 | 161 | 1.6 | 8.0 | 0.00 | 0.00 | 0.00 | 62 | 1001.8 |
| 20260505004957 | 20 | 112 | 3.2 | 4.8 | 0.00 | 0.00 | 0.00 | 62 | 1001.8 |
| 20260505004454 | 20 | 108 | 3.2 | 8.0 | 0.00 | 0.00 | 0.00 | 61 | 1001.6 |
| 20260505003951 | 20 | 145 | 4.8 | 16.1 | 0.00 | 0.00 | 0.00 | 60 | 1001.8 |
| 20260505003448 | 20 | 115 | 4.8 | 8.0 | 0.00 | 0.00 | 0.00 | 61 | 1001.9 |
| 20260505002944 | 20 | 104 | 3.2 | 8.0 | 0.00 | 0.00 | 0.00 | 60 | 1001.8 |
| 20260505002440 | 20 | 123 | 3.2 | 4.8 | 0.00 | 0.00 | 0.00 | 60 | 1001.7 |
| 20260505001939 | 21 | 86 | 1.6 | 8.0 | 0.00 | 0.00 | 0.00 | 60 | 1001.9 |
| 20260505001436 | 21 | 144 | 1.6 | 8.0 | 0.00 | 0.00 | 0.00 | 59 | 1002.0 |
| 20260505000933 | 21 | 127 | 4.8 | 4.8 | 0.00 | 0.00 | 0.00 | 59 | 1001.8 |
| 20260505000431 | 21 | 136 | 4.8 | 8.0 | 0.00 | 0.00 | 0.00 | 58 | 1001.9 |
| 20260504235927 | 21 | 151 | 6.4 | 9.7 | 0.00 | 0.00 | 0.00 | 58 | 1001.8 |
| 20260504235425 | 21 | 119 | 3.2 | 9.7 | 0.00 | 0.00 | 0.00 | 57 | 1001.7 |
| 20260504234921 | 21 | 152 | 4.8 | 9.7 | 0.00 | 0.00 | 0.00 | 57 | 1001.8 |
| 20260504234419 | 21 | 95 | 3.2 | 11.3 | 0.00 | 0.00 | 0.00 | 56 | 1001.6 |
| 20260504233915 | 21 | 149 | 6.4 | 14.5 | 0.00 | 0.00 | 0.00 | 55 | 1001.9 |
| 20260504233411 | 22 | 140 | 4.8 | 9.7 | 0.00 | 0.00 | 0.00 | 55 | 1001.7 |
| 20260504232908 | 22 | 151 | 3.2 | 8.0 | 0.00 | 0.00 | 0.00 | 54 | 1001.8 |
| 20260504232405 | 22 | 127 | 4.8 | 11.3 | 0.00 | 0.00 | 0.00 | 54 | 1001.9 |
| 20260504231902 | 22 | 192 | 12.9 | 19.3 | 0.00 | 0.00 | 0.00 | 53 | 1001.9 |
| 20260504231358 | 22 | 178 | 4.8 | 9.7 | 0.00 | 0.00 | 0.00 | 53 | 1001.9 |
| 20260504230854 | 22 | 135 | 4.8 | 17.7 | 0.00 | 0.00 | 0.00 | 52 | 1001.9 |
| 20260504230352 | 22 | 46 | 6.4 | 9.7 | 0.00 | 0.00 | 0.00 | 51 | 1002.1 |
| 20260504225850 | 22 | 145 | 9.7 | 12.9 | 0.00 | 0.00 | 0.00 | 50 | 1002.1 |
| 20260504225346 | 22 | 141 | 6.4 | 8.0 | 0.00 | 0.00 | 0.00 | 49 | 1002.1 |
| 20260504224844 | 22 | 104 | 1.6 | 9.7 | 0.00 | 0.00 | 0.00 | 49 | 1002.2 |
| 20260504224341 | 22 | 141 | 3.2 | 12.9 | 0.00 | 0.00 | 0.00 | 49 | 1002.3 |
| 20260504223838 | 22 | 125 | 4.8 | 19.3 | 0.00 | 0.00 | 0.00 | 48 | 1002.4 |
| 20260504223333 | 22 | 122 | 4.8 | 9.7 | 0.00 | 0.00 | 0.00 | 47 | 1002.5 |
| 20260504222830 | 23 | 127 | 8.0 | 9.7 | 0.00 | 0.00 | 0.00 | 46 | 1002.5 |
| 20260504222327 | 23 | 132 | 8.0 | 8.0 | 0.00 | 0.00 | 0.00 | 45 | 1002.4 |
| 20260504221825 | 23 | 131 | 3.2 | 16.1 | 0.00 | 0.00 | 0.00 | 45 | 1002.5 |
| 20260504221321 | 23 | 96 | 6.4 | 14.5 | 0.00 | 0.00 | 0.00 | 44 | 1002.5 |
| 20260504220819 | 23 | 40 | 3.2 | 14.5 | 0.00 | 0.00 | 0.00 | 44 | 1002.4 |
| 20260504220315 | 23 | 146 | 9.7 | 9.7 | 0.00 | 0.00 | 0.00 | 43 | 1002.4 |
| 20260504215813 | 23 | 100 | 8.0 | 22.5 | 0.00 | 0.00 | 0.00 | 42 | 1002.3 |
| 20260504215309 | 24 | 121 | 4.8 | 9.7 | 0.00 | 0.00 | 0.00 | 43 | 1002.1 |
| 20260504214805 | 24 | 69 | 4.8 | 19.3 | 0.00 | 0.00 | 0.00 | 43 | 1002.1 |
| 20260504214302 | 24 | 151 | 8.0 | 16.1 | 0.00 | 0.00 | 0.00 | 43 | 1002.1 |
| 20260504213758 | 25 | 132 | 8.0 | 16.1 | 0.00 | 0.00 | 0.00 | 43 | 1002.2 |
| 20260504213254 | 25 | 63 | 4.8 | 16.1 | 0.00 | 0.00 | 0.00 | 43 | 1002.1 |
| 20260504212752 | 24 | 79 | 4.8 | 9.7 | 0.00 | 0.00 | 0.00 | 43 | 1002.2 |
| 20260504212248 | 25 | 145 | 9.7 | 14.5 | 0.00 | 0.00 | 0.00 | 42 | 1002.1 |
| 20260504211746 | 25 | 113 | 9.7 | 19.3 | 0.00 | 0.00 | 0.00 | 42 | 1002.1 |
| 20260504211242 | 25 | 135 | 8.0 | 19.3 | 0.00 | 0.00 | 0.00 | 40 | 1001.9 |
| 20260504210739 | 25 | 70 | 3.2 | 12.9 | 0.00 | 0.00 | 0.00 | 42 | 1002.1 |
| 20260504210236 | 25 | 125 | 12.9 | 17.7 | 0.00 | 0.00 | 0.00 | 40 | 1002.0 |
| 20260504205733 | 26 | 219 | 4.8 | 14.5 | 0.00 | 0.00 | 0.00 | 40 | 1002.1 |
| 20260504205231 | 26 | 74 | 0.0 | 6.4 | 0.00 | 0.00 | 0.00 | 42 | 1002.0 |
| 20260504204729 | 26 | 128 | 6.4 | 11.3 | 0.00 | 0.00 | 0.00 | 42 | 1002.4 |
| 20260504204227 | 25 | 108 | 4.8 | 8.0 | 0.00 | 0.00 | 0.00 | 45 | 1002.1 |
| 20260504203726 | 25 | 119 | 1.6 | 9.7 | 0.00 | 0.00 | 0.00 | 44 | 1002.1 |
| 20260504203223 | 25 | 79 | 3.2 | 12.9 | 0.00 | 0.00 | 0.00 | 42 | 1002.0 |
| 20260504202723 | 25 | 130 | 4.8 | 17.7 | 0.00 | 0.00 | 0.00 | 43 | 1001.9 |
| 20260504202221 | 25 | 174 | 4.8 | 14.5 | 0.00 | 0.00 | 0.00 | 42 | 1002.0 |
| 20260504201718 | 25 | 156 | 1.6 | 9.7 | 0.00 | 0.00 | 0.00 | 43 | 1002.1 |
| 20260504201215 | 25 | 168 | 6.4 | 11.3 | 0.00 | 0.00 | 0.00 | 43 | 1002.1 |
| 20260504200712 | 25 | 114 | 6.4 | 11.3 | 0.00 | 0.00 | 0.00 | 43 | 1002.2 |
| 20260504200208 | 25 | 132 | 3.2 | 14.5 | 0.00 | 0.00 | 0.00 | 43 | 1002.2 |
| 20260504195705 | 25 | 159 | 3.2 | 14.5 | 0.00 | 0.00 | 0.00 | 42 | 1002.3 |
| 20260504195201 | 26 | 216 | 3.2 | 12.9 | 0.00 | 0.00 | 0.00 | 43 | 1002.4 |
| 20260504194658 | 25 | 102 | 4.8 | 12.9 | 0.00 | 0.00 | 0.00 | 43 | 1002.5 |
| 20260504194154 | 25 | 151 | 3.2 | 8.0 | 0.00 | 0.00 | 0.00 | 45 | 1002.5 |
| 20260504193650 | 25 | 124 | 9.7 | 9.7 | 0.00 | 0.00 | 0.00 | 44 | 1002.8 |
| 20260504193148 | 25 | 154 | 12.9 | 19.3 | 0.00 | 0.00 | 0.00 | 44 | 1002.7 |
| 20260504192646 | 25 | 150 | 4.8 | 9.7 | 0.00 | 0.00 | 0.00 | 44 | 1002.6 |
| 20260504192144 | 25 | 68 | 6.4 | 12.9 | 0.00 | 0.00 | 0.00 | 43 | 1002.8 |
| 20260504191642 | 26 | 97 | 3.2 | 14.5 | 0.00 | 0.00 | 0.00 | 45 | 1002.6 |
| 20260504191138 | 25 | 177 | 4.8 | 9.7 | 0.00 | 0.00 | 0.00 | 44 | 1002.6 |
| 20260504190634 | 25 | 65 | 3.2 | 6.4 | 0.00 | 0.00 | 0.00 | 45 | 1002.8 |
| 20260504190131 | 25 | 158 | 3.2 | 11.3 | 0.00 | 0.00 | 0.00 | 44 | 1002.6 |
| 20260504185627 | 25 | 170 | 3.2 | 9.7 | 0.00 | 0.00 | 0.00 | 47 | 1002.6 |
| 20260504185124 | 25 | 72 | 3.2 | 11.3 | 0.00 | 0.00 | 0.00 | 47 | 1002.7 |
| 20260504184620 | 25 | 99 | 4.8 | 9.7 | 0.00 | 0.00 | 0.00 | 47 | 1002.9 |
| 20260504184115 | 24 | 156 | 6.4 | 17.7 | 0.00 | 0.00 | 0.00 | 46 | 1002.8 |
| 20260504183613 | 24 | 157 | 9.7 | 12.9 | 0.00 | 0.00 | 0.00 | 47 | 1002.9 |
| 20260504183110 | 25 | 68 | 3.2 | 8.0 | 0.00 | 0.00 | 0.00 | 47 | 1003.1 |
| 20260504182608 | 25 | 83 | 4.8 | 17.7 | 0.00 | 0.00 | 0.00 | 45 | 1002.9 |
| 20260504182105 | 25 | 141 | 3.2 | 11.3 | 0.00 | 0.00 | 0.00 | 45 | 1003.1 |
| 20260504181602 | 25 | 169 | 8.0 | 9.7 | 0.00 | 0.00 | 0.00 | 46 | 1003.2 |
| 20260504181100 | 25 | 140 | 8.0 | 11.3 | 0.00 | 0.00 | 0.00 | 47 | 1003.1 |
| 20260504180558 | 24 | 131 | 6.4 | 11.3 | 0.00 | 0.00 | 0.00 | 49 | 1003.2 |
| 20260504180057 | 25 | 151 | 8.0 | 14.5 | 0.00 | 0.00 | 0.00 | 47 | 1003.3 |
| 20260504175554 | 24 | 162 | 8.0 | 12.9 | 0.00 | 0.00 | 0.00 | 48 | 1003.0 |
| 20260504175050 | 24 | 145 | 6.4 | 12.9 | 0.00 | 0.00 | 0.00 | 49 | 1003.3 |
| 20260504174549 | 24 | 165 | 6.4 | 19.3 | 0.00 | 0.00 | 0.00 | 49 | 1003.2 |
| 20260504174045 | 25 | 173 | 6.4 | 11.3 | 0.00 | 0.00 | 0.00 | 47 | 1003.2 |
| 20260504173542 | 24 | 173 | 4.8 | 9.7 | 0.00 | 0.00 | 0.00 | 49 | 1003.6 |
| 20260504173040 | 24 | 174 | 8.0 | 11.3 | 0.00 | 0.00 | 0.00 | 48 | 1003.5 |
| 20260504172535 | 23 | 163 | 3.2 | 11.3 | 0.00 | 0.00 | 0.00 | 50 | 1003.8 |
| 20260504172032 | 23 | 151 | 8.0 | 22.5 | 0.00 | 0.00 | 0.00 | 48 | 1003.7 |
| 20260504171529 | 23 | 173 | 4.8 | 11.3 | 0.00 | 0.00 | 0.00 | 50 | 1003.7 |
| 20260504171026 | 23 | 89 | 1.6 | 9.7 | 0.00 | 0.00 | 0.00 | 49 | 1003.8 |
| 20260504170522 | 23 | 171 | 1.6 | 14.5 | 0.00 | 0.00 | 0.00 | 49 | 1004.1 |
| 20260504160442 | 22 | 141 | 1.6 | 9.7 | 0.00 | 0.00 | 0.00 | 52 | 1004.9 |
| 20260504150906 | 21 | 113 | 3.2 | 6.4 | 0.00 | 0.00 | 0.00 | 53 | 1005.4 |
| 20260504150402 | 21 | 148 | 6.4 | 9.7 | 0.00 | 0.00 | 0.00 | 51 | 1005.5 |
| 20260504141332 | 18 | 115 | 4.8 | 12.9 | 0.00 | 0.00 | 0.00 | 55 | 1006.0 |
| 20260504140829 | 18 | 129 | 3.2 | 6.4 | 0.00 | 0.00 | 0.00 | 56 | 1006.1 |
| 20260504140325 | 18 | 77 | 3.2 | 6.4 | 0.00 | 0.00 | 0.00 | 57 | 1006.0 |
| 20260504130754 | 15 | 110 | 3.2 | 8.0 | 0.00 | 0.00 | 0.00 | 62 | 1006.3 |
| 20260504130250 | 15 | 130 | 3.2 | 12.9 | 0.00 | 0.00 | 0.00 | 62 | 1006.1 |
| 20260504120214 | 11 | 143 | 6.4 | 8.0 | 0.00 | 0.00 | 0.00 | 73 | 1006.9 |
| 20260504110641 | 9 | 109 | 4.8 | 6.4 | 0.00 | 0.00 | 0.00 | 80 | 1006.5 |
| 20260504110137 | 8 | 120 | 0.0 | 4.8 | 0.00 | 0.00 | 0.00 | 80 | 1006.7 |
| 20260504100557 | 9 | 129 | 4.8 | 9.7 | 0.00 | 0.00 | 0.00 | 79 | 1006.8 |
| 20260504081950 | 6 | 115 | 4.8 | 4.8 | 0.00 | 0.00 | 0.00 | 91 | 1007.1 |
| 20260504081448 | 6 | 111 | 3.2 | 4.8 | 0.00 | 0.00 | 0.00 | 92 | 1007.2 |
| 20260504080943 | 6 | 109 | 3.2 | 4.8 | 0.00 | 0.00 | 0.00 | 92 | 1007.4 |
| 20260504080440 | 6 | 107 | 3.2 | 4.8 | 0.00 | 0.00 | 0.00 | 93 | 1007.4 |
| 20260504070408 | 5 | 95 | 3.2 | 4.8 | 0.00 | 0.00 | 0.00 | 93 | 1007.9 |
| 20260504050254 | 7 | 94 | 3.2 | 4.8 | 0.00 | 0.00 | 0.00 | 84 | 1009.2 |
| 20260504045751 | 7 | 101 | 3.2 | 3.2 | 0.00 | 0.00 | 0.00 | 84 | 1009.2 |
| 20260504045250 | 8 | 109 | 3.2 | 4.8 | 0.00 | 0.00 | 0.00 | 83 | 1009.3 |
| 20260504044748 | 8 | 89 | 1.6 | 4.8 | 0.00 | 0.00 | 0.00 | 83 | 1009.2 |
| 20260504044246 | 7 | 65 | 3.2 | 6.4 | 0.00 | 0.00 | 0.00 | 84 | 1009.2 |
| 20260504043743 | 7 | 109 | 3.2 | 4.8 | 0.00 | 0.00 | 0.00 | 84 | 1009.2 |
| 20260504043239 | 7 | 132 | 3.2 | 4.8 | 0.00 | 0.00 | 0.00 | 84 | 1009.4 |
| 20260504042737 | 7 | 96 | 1.6 | 3.2 | 0.00 | 0.00 | 0.00 | 84 | 1009.3 |
| 20260504042233 | 7 | 82 | 3.2 | 3.2 | 0.00 | 0.00 | 0.00 | 84 | 1009.4 |
| 20260504041730 | 7 | 99 | 3.2 | 4.8 | 0.00 | 0.00 | 0.00 | 83 | 1009.4 |
| 20260504041226 | 8 | 109 | 3.2 | 4.8 | 0.00 | 0.00 | 0.00 | 83 | 1009.6 |
| 20260504040722 | 8 | 64 | 3.2 | 3.2 | 0.00 | 0.00 | 0.00 | 82 | 1009.7 |
| 20260504040219 | 8 | 66 | 3.2 | 4.8 | 0.00 | 0.00 | 0.00 | 81 | 1009.6 |
| 20260504035716 | 8 | 96 | 3.2 | 4.8 | 0.00 | 0.00 | 0.00 | 81 | 1009.4 |
| 20260504035213 | 8 | 96 | 3.2 | 3.2 | 0.00 | 0.00 | 0.00 | 80 | 1009.7 |
| 20260504034710 | 8 | 101 | 1.6 | 6.4 | 0.00 | 0.00 | 0.00 | 80 | 1009.6 |
| 20260504034208 | 8 | 102 | 4.8 | 4.8 | 0.00 | 0.00 | 0.00 | 80 | 1009.8 |
| 20260504033705 | 8 | 97 | 3.2 | 4.8 | 0.00 | 0.00 | 0.00 | 80 | 1009.9 |
| 20260504033202 | 8 | 137 | 6.4 | 6.4 | 0.00 | 0.00 | 0.00 | 81 | 1009.9 |
| 20260504032659 | 8 | 94 | 3.2 | 4.8 | 0.00 | 0.00 | 0.00 | 81 | 1010.0 |
| 20260504032156 | 8 | 93 | 3.2 | 4.8 | 0.00 | 0.00 | 0.00 | 81 | 1010.1 |
| 20260504031653 | 8 | 109 | 3.2 | 4.8 | 0.00 | 0.00 | 0.00 | 83 | 1010.0 |
| 20260504031149 | 8 | 94 | 3.2 | 4.8 | 0.00 | 0.00 | 0.00 | 83 | 1010.0 |
| 20260504030646 | 8 | 107 | 8.0 | 8.0 | 0.00 | 0.00 | 0.00 | 83 | 1010.1 |
| 20260504030143 | 8 | 95 | 3.2 | 4.8 | 0.00 | 0.00 | 0.00 | 83 | 1010.2 |
| 20260504025640 | 7 | 86 | 3.2 | 4.8 | 0.00 | 0.00 | 0.00 | 83 | 1010.1 |
| 20260504025136 | 7 | 86 | 3.2 | 4.8 | 0.00 | 0.00 | 0.00 | 84 | 1010.2 |
| 20260504024634 | 8 | 82 | 3.2 | 4.8 | 0.00 | 0.00 | 0.00 | 83 | 1010.3 |
| 20260504024130 | 8 | 115 | 1.6 | 3.2 | 0.00 | 0.00 | 0.00 | 83 | 1010.2 |
| 20260504023627 | 8 | 78 | 3.2 | 4.8 | 0.00 | 0.00 | 0.00 | 82 | 1010.3 |
| 20260504023123 | 8 | 72 | 3.2 | 3.2 | 0.00 | 0.00 | 0.00 | 82 | 1010.4 |
| 20260504022619 | 8 | 86 | 3.2 | 3.2 | 0.00 | 0.00 | 0.00 | 82 | 1010.3 |
| 20260504022115 | 8 | 86 | 3.2 | 3.2 | 0.00 | 0.00 | 0.00 | 82 | 1010.5 |
| 20260504021614 | 8 | 91 | 3.2 | 3.2 | 0.00 | 0.00 | 0.00 | 81 | 1010.3 |
| 20260504021110 | 8 | 77 | 3.2 | 4.8 | 0.00 | 0.00 | 0.00 | 81 | 1010.2 |
| 20260504020607 | 8 | 57 | 3.2 | 4.8 | 0.00 | 0.00 | 0.00 | 80 | 1010.2 |
| 20260504020103 | 8 | 142 | 4.8 | 4.8 | 0.00 | 0.00 | 0.00 | 81 | 1010.6 |
| 20260504015600 | 8 | 115 | 4.8 | 6.4 | 0.00 | 0.00 | 0.00 | 81 | 1010.2 |
| 20260504015055 | 8 | 84 | 3.2 | 4.8 | 0.00 | 0.00 | 0.00 | 80 | 1010.4 |
| 20260504014552 | 9 | 99 | 3.2 | 4.8 | 0.00 | 0.00 | 0.00 | 80 | 1010.4 |
| 20260504014049 | 9 | 88 | 3.2 | 4.8 | 0.00 | 0.00 | 0.00 | 79 | 1010.5 |
| 20260504013547 | 9 | 98 | 3.2 | 4.8 | 0.00 | 0.00 | 0.00 | 78 | 1010.4 |
| 20260504013044 | 10 | 109 | 3.2 | 4.8 | 0.00 | 0.00 | 0.00 | 78 | 1010.3 |
| 20260504012541 | 10 | 108 | 3.2 | 6.4 | 0.00 | 0.00 | 0.00 | 78 | 1010.4 |
| 20260504012039 | 10 | 126 | 3.2 | 4.8 | 0.00 | 0.00 | 0.00 | 77 | 1010.2 |
| 20260504011535 | 10 | 113 | 3.2 | 8.0 | 0.00 | 0.00 | 0.00 | 77 | 1010.4 |
| 20260504011031 | 10 | 113 | 3.2 | 6.4 | 0.00 | 0.00 | 0.00 | 77 | 1010.3 |